KN6RO Weather Reports


time (UTC)temp
F
wind
direction
speed
knots
gust
knots
rain 1hr
in
rain 24hr
in
rain mn
in
humidity
%
barometer
mb
20260505214007 72 79 0.0 0.9 0.00 0.00 0.00 40 1014.9
20260505213512 72 37 0.0 2.6 0.00 0.00 0.00 45 1015.1
20260505213030 72 251 0.0 3.5 0.00 0.00 0.00 41 1014.9
20260505212509 72 103 0.9 3.5 0.00 0.00 0.00 42 1014.8
20260505212013 72 252 0.9 3.5 0.00 0.00 0.00 43 1014.9
20260505211531 72 91 0.0 2.6 0.00 0.00 0.00 43 1014.9
20260505211006 72 44 0.9 1.7 0.00 0.00 0.00 42 1015.1
20260505210508 72 109 0.0 2.6 0.00 0.00 0.00 42 1015.0
20260505210020 72 98 0.9 2.6 0.00 0.00 0.00 41 1015.0
20260505203510 72 94 0.0 1.7 0.00 0.00 0.00 45 1015.1
20260505203028 73 89 0.0 3.5 0.00 0.00 0.00 45 1015.3
20260505202509 73 90 0.9 3.5 0.00 0.00 0.00 41 1015.1
20260505201533 73 75 0.0 3.5 0.00 0.00 0.00 42 1015.4
20260505201007 73 113 0.9 3.5 0.00 0.00 0.00 41 1015.3
20260505200508 73 244 0.9 3.5 0.00 0.00 0.00 42 1015.4
20260505200030 73 156 0.9 2.6 0.00 0.00 0.00 43 1015.5
20260505195508 73 57 0.0 3.5 0.00 0.00 0.00 41 1015.5
20260505195010 74 56 0.0 3.5 0.00 0.00 0.00 42 1015.5
20260505194528 74 96 0.9 2.6 0.00 0.00 0.00 40 1015.5
20260505194012 74 252 0.9 2.6 0.00 0.00 0.00 38 1015.6
20260505193514 75 20 0.0 1.7 0.00 0.00 0.00 40 1015.7
20260505192510 75 14 0.0 3.5 0.00 0.00 0.00 44 1015.7
20260505192010 75 28 0.9 5.2 0.00 0.00 0.00 44 1015.7
20260505191514 75 107 1.7 5.2 0.00 0.00 0.00 40 1015.8
20260505191007 76 68 0.9 4.3 0.00 0.00 0.00 45 1016.0
20260505190506 76 99 0.9 4.3 0.00 0.00 0.00 43 1016.1
20260505190015 76 250 0.9 4.3 0.00 0.00 0.00 42 1016.1
20260505185507 76 68 0.9 2.6 0.00 0.00 0.00 44 1016.0
20260505185008 75 82 0.9 2.6 0.00 0.00 0.00 40 1016.0
20260505184526 76 94 0.9 2.6 0.00 0.00 0.00 37 1016.1
20260505184007 76 252 0.9 2.6 0.00 0.00 0.00 41 1016.2
20260505183511 76 276 0.9 3.5 0.00 0.00 0.00 37 1016.1
20260505183024 76 49 0.9 3.5 0.00 0.00 0.00 40 1016.2
20260505182506 76 86 0.9 3.5 0.00 0.00 0.00 37 1016.2
20260505182018 77 110 1.7 5.2 0.00 0.00 0.00 38 1016.5
20260505181527 76 85 0.9 5.2 0.00 0.00 0.00 41 1016.5
20260505181008 76 125 0.9 3.5 0.00 0.00 0.00 39 1016.6
20260505180511 76 68 0.9 3.5 0.00 0.00 0.00 41 1016.5
20260505180026 77 14 0.9 2.6 0.00 0.00 0.00 42 1016.6
20260505175507 77 13 0.9 7.8 0.00 0.00 0.00 41 1016.7
20260505175009 76 32 0.9 7.8 0.00 0.00 0.00 39 1017.0
20260505174532 76 91 1.7 7.8 0.00 0.00 0.00 45 1016.9
20260505174010 75 74 0.9 4.3 0.00 0.00 0.00 45 1017.1
20260505173506 74 278 0.9 4.3 0.00 0.00 0.00 45 1017.1
20260505173022 74 103 1.7 4.3 0.00 0.00 0.00 45 1017.1
20260505172510 74 51 0.9 3.5 0.00 0.00 0.00 48 1017.1
20260505172010 74 104 0.9 3.5 0.00 0.00 0.00 45 1017.2
20260505171532 74 60 0.9 3.5 0.00 0.00 0.00 43 1017.3
20260505171007 75 37 1.7 2.6 0.00 0.00 0.00 44 1017.3
20260505170509 75 75 0.9 2.6 0.00 0.00 0.00 42 1017.4
20260505170028 76 71 0.9 3.5 0.00 0.00 0.00 44 1017.3
20260505165507 76 108 0.9 3.5 0.00 0.00 0.00 41 1017.2
20260505165013 75 193 0.9 2.6 0.00 0.00 0.00 46 1017.2
20260505164528 75 241 0.9 3.5 0.00 0.00 0.00 42 1017.2
20260505164007 74 99 0.9 4.3 0.00 0.00 0.00 45 1017.2
20260505163506 74 34 0.9 4.3 0.00 0.00 0.00 43 1017.2
20260505163021 74 257 1.7 3.5 0.00 0.00 0.00 43 1017.2
20260505162507 74 244 0.9 3.5 0.00 0.00 0.00 41 1017.4
20260505162007 74 124 2.6 4.3 0.00 0.00 0.00 40 1017.3
20260505161524 74 33 1.7 4.3 0.00 0.00 0.00 42 1017.4
20260505161011 75 160 0.9 2.6 0.00 0.00 0.00 40 1017.5
20260505160513 75 54 0.9 2.6 0.00 0.00 0.00 38 1017.4
20260505153036 73 141 0.9 2.6 0.00 0.00 0.00 44 1017.5
20260505152507 73 223 0.9 2.6 0.00 0.00 0.00 46 1017.4
20260505152011 73 108 0.9 1.7 0.00 0.00 0.00 47 1017.5
20260505151522 72 44 0.9 1.7 0.00 0.00 0.00 51 1017.6
20260505151007 72 63 0.0 3.5 0.00 0.00 0.00 48 1017.7
20260505150509 71 116 0.9 3.5 0.00 0.00 0.00 52 1017.7
20260505140504 66 37 0.9 1.7 0.00 0.00 0.00 57 1017.5
20260505125007 61 83 0.0 0.9 0.00 0.00 0.00 58 1016.6
20260505124508 61 90 0.0 0.9 0.00 0.00 0.00 59 1016.6
20260505124007 61 91 0.0 0.9 0.00 0.00 0.00 57 1016.5
20260505123503 62 90 0.0 0.9 0.00 0.00 0.00 59 1016.5
20260505123007 62 91 0.0 0.9 0.00 0.00 0.00 59 1016.5
20260505122505 62 91 0.0 0.9 0.00 0.00 0.00 59 1016.6
20260505122008 62 90 0.0 1.7 0.00 0.00 0.00 58 1016.5
20260505121508 62 90 0.0 1.7 0.00 0.00 0.00 57 1016.3
20260505121006 63 86 0.0 0.9 0.00 0.00 0.00 59 1016.3
20260505120508 64 41 0.0 0.9 0.00 0.00 0.00 58 1016.4
20260505120008 64 41 0.0 0.9 0.00 0.00 0.00 53 1016.4
20260505115505 62 41 0.0 0.9 0.00 0.00 0.00 54 1016.5
20260505115006 61 355 0.0 0.9 0.00 0.00 0.00 56 1016.4
20260505114512 60 355 0.0 0.9 0.00 0.00 0.00 59 1016.3
20260505114005 59 355 0.0 0.9 0.00 0.00 0.00 61 1016.2
20260505113505 58 355 0.0 0.9 0.00 0.00 0.00 59 1016.0
20260505113011 58 249 0.0 0.9 0.00 0.00 0.00 58 1015.9
20260505112510 58 248 0.0 0.0 0.00 0.00 0.00 59 1015.9
20260505112003 57 248 0.0 0.9 0.00 0.00 0.00 60 1015.8
20260505111508 57 248 0.0 0.9 0.00 0.00 0.00 59 1015.7
20260505111006 57 248 0.0 0.9 0.00 0.00 0.00 59 1015.7
20260505110508 56 248 0.0 0.9 0.00 0.00 0.00 59 1015.8
20260505102007 56 252 0.0 0.9 0.00 0.00 0.00 60 1015.5
20260505101510 56 96 0.0 0.9 0.00 0.00 0.00 59 1015.6
20260505101006 56 94 0.0 0.9 0.00 0.00 0.00 57 1015.7
20260505100506 57 56 0.0 0.9 0.00 0.00 0.00 57 1015.9
20260505100011 57 56 0.0 0.9 0.00 0.00 0.00 58 1015.9
20260505095510 57 56 0.0 0.9 0.00 0.00 0.00 56 1016.0
20260505095011 57 56 0.0 0.9 0.00 0.00 0.00 56 1015.7
20260505094511 57 66 0.0 0.9 0.00 0.00 0.00 56 1015.8
20260505094006 57 66 0.0 0.9 0.00 0.00 0.00 56 1015.9
20260505093506 57 65 0.0 0.9 0.00 0.00 0.00 57 1015.8
20260505093013 57 233 0.0 0.9 0.00 0.00 0.00 56 1015.8
20260505092507 57 233 0.0 1.7 0.00 0.00 0.00 56 1015.9
20260505092007 58 36 0.0 1.7 0.00 0.00 0.00 56 1015.9
20260505091515 58 247 0.0 0.9 0.00 0.00 0.00 55 1015.9
20260505091007 58 248 0.0 0.9 0.00 0.00 0.00 55 1015.9
20260505090507 58 139 0.0 0.9 0.00 0.00 0.00 55 1015.9
20260505090012 58 140 0.0 0.9 0.00 0.00 0.00 55 1016.0
20260505085508 58 256 0.0 0.9 0.00 0.00 0.00 55 1016.0
20260505085006 58 311 0.0 0.9 0.00 0.00 0.00 55 1016.0
20260505084510 58 308 0.0 0.9 0.00 0.00 0.00 55 1016.0
20260505084005 58 338 0.0 0.9 0.00 0.00 0.00 55 1016.1
20260505083507 58 353 0.0 0.9 0.00 0.00 0.00 55 1016.1
20260505083014 58 304 0.9 0.9 0.00 0.00 0.00 55 1016.1
20260505082507 58 302 0.0 0.9 0.00 0.00 0.00 55 1016.1
20260505082010 58 327 0.0 1.7 0.00 0.00 0.00 56 1016.1
20260505081521 58 327 0.0 1.7 0.00 0.00 0.00 56 1016.0
20260505081008 58 314 0.0 0.9 0.00 0.00 0.00 57 1016.0
20260505080512 57 321 0.0 0.9 0.00 0.00 0.00 57 1016.1
20260505080006 57 307 0.0 0.9 0.00 0.00 0.00 58 1016.0
20260505075502 57 250 0.0 0.9 0.00 0.00 0.00 58 1015.9
20260505075003 57 250 0.0 0.9 0.00 0.00 0.00 58 1016.0
20260505074505 57 250 0.0 0.9 0.00 0.00 0.00 58 1016.0
20260505074004 57 250 0.0 0.9 0.00 0.00 0.00 58 1016.1
20260505073507 57 250 0.0 0.9 0.00 0.00 0.00 57 1016.1
20260505073012 58 250 0.0 0.9 0.00 0.00 0.00 58 1016.1
20260505072507 58 250 0.0 0.9 0.00 0.00 0.00 57 1016.1
20260505072007 58 250 0.0 0.9 0.00 0.00 0.00 57 1016.1
20260505071517 58 252 0.0 0.9 0.00 0.00 0.00 57 1016.1
20260505071007 58 252 0.0 0.9 0.00 0.00 0.00 57 1016.1
20260505070510 58 253 0.0 0.9 0.00 0.00 0.00 56 1016.0
20260505070016 58 253 0.0 0.0 0.00 0.00 0.00 55 1016.0
20260505065507 59 253 0.0 0.9 0.00 0.00 0.00 55 1016.1
20260505065008 59 253 0.0 0.9 0.00 0.00 0.00 54 1016.1
20260505064504 59 253 0.0 0.9 0.00 0.00 0.00 54 1016.1
20260505064007 59 253 0.0 0.9 0.00 0.00 0.00 54 1016.1
20260505063504 59 253 0.0 0.9 0.00 0.00 0.00 54 1016.1
20260505063008 59 253 0.0 0.9 0.00 0.00 0.00 54 1016.1
20260505062507 59 253 0.0 0.0 0.00 0.00 0.00 54 1016.2
20260505062008 59 253 0.0 0.9 0.00 0.00 0.00 55 1016.2
20260505061509 59 253 0.0 0.9 0.00 0.00 0.00 56 1016.2
20260505061007 59 253 0.0 0.9 0.00 0.00 0.00 54 1016.2
20260505060510 59 253 0.0 0.9 0.00 0.00 0.00 54 1016.3
20260505060018 59 253 0.0 0.9 0.00 0.00 0.00 54 1016.3
20260505055509 59 288 0.0 0.9 0.00 0.00 0.00 54 1016.4
20260505055010 59 310 0.0 0.9 0.00 0.00 0.00 53 1016.5
20260505054528 59 288 0.0 0.9 0.00 0.00 0.00 53 1016.5
20260505054008 59 288 0.0 1.7 0.00 0.00 0.00 54 1016.5
20260505053513 59 245 0.0 1.7 0.00 0.00 0.00 55 1016.5
20260505053005 59 253 0.0 0.9 0.00 0.00 0.00 53 1016.5
20260505052504 60 314 0.0 0.9 0.00 0.00 0.00 54 1016.5
20260505052004 60 314 0.0 0.9 0.00 0.00 0.00 52 1016.5
20260505051511 60 328 0.0 0.9 0.00 0.00 0.00 52 1016.5
20260505051009 60 316 0.0 0.9 0.00 0.00 0.00 52 1016.5
20260505050508 60 310 0.0 0.9 0.00 0.00 0.00 52 1016.5
20260505041508 61 338 0.0 0.9 0.00 0.00 0.00 50 1016.3
20260505041005 61 326 0.0 0.9 0.00 0.00 0.00 50 1016.3
20260505040505 61 314 0.0 0.9 0.00 0.00 0.00 50 1016.3
20260505040011 61 314 0.0 0.9 0.00 0.00 0.00 50 1016.3
20260505035505 61 314 0.0 0.9 0.00 0.00 0.00 50 1016.5
20260505035006 61 6 0.0 0.9 0.00 0.00 0.00 50 1016.5
20260505034525 61 4 0.0 0.9 0.00 0.00 0.00 50 1016.5
20260505034009 61 263 0.0 0.9 0.00 0.00 0.00 50 1016.4
20260505033506 61 283 0.0 0.9 0.00 0.00 0.00 51 1016.5
20260505033022 61 250 0.0 0.9 0.00 0.00 0.00 51 1016.4
20260505032507 61 250 0.0 0.9 0.00 0.00 0.00 52 1016.5
20260505032008 62 305 0.0 0.0 0.00 0.00 0.00 50 1016.5
20260505031524 62 305 0.0 0.9 0.00 0.00 0.00 49 1016.4
20260505031008 62 274 0.0 0.9 0.00 0.00 0.00 48 1016.4
20260505030509 62 255 0.0 0.9 0.00 0.00 0.00 49 1016.4
20260505030037 62 5 0.0 1.7 0.00 0.00 0.00 49 1016.5
20260505025508 63 29 0.9 1.7 0.00 0.00 0.00 49 1016.4
20260505025006 63 293 0.9 0.9 0.00 0.00 0.00 50 1016.5
20260505024524 62 5 0.0 0.9 0.00 0.00 0.00 50 1016.4
20260505024006 62 299 0.0 0.9 0.00 0.00 0.00 51 1016.5
20260505023506 63 338 0.0 0.9 0.00 0.00 0.00 51 1016.5
20260505023018 63 353 0.0 0.9 0.00 0.00 0.00 51 1016.4
20260505022508 63 23 0.0 0.9 0.00 0.00 0.00 52 1016.3
20260505022010 63 20 0.0 0.9 0.00 0.00 0.00 52 1016.3
20260505021524 63 20 0.0 0.9 0.00 0.00 0.00 52 1016.3
20260505021006 63 326 0.0 0.9 0.00 0.00 0.00 52 1016.3
20260505020509 63 326 0.0 0.9 0.00 0.00 0.00 52 1016.3
20260505020023 63 326 0.0 0.9 0.00 0.00 0.00 52 1016.2
20260505015510 63 321 0.0 0.9 0.00 0.00 0.00 52 1016.2
20260505015007 64 321 0.0 0.9 0.00 0.00 0.00 52 1016.1
20260505014524 64 319 0.0 0.9 0.00 0.00 0.00 52 1016.1
20260505014005 64 322 0.0 0.9 0.00 0.00 0.00 53 1016.0
20260505013505 64 323 0.0 0.9 0.00 0.00 0.00 53 1015.9
20260505013018 64 330 0.9 0.9 0.00 0.00 0.00 53 1015.9
20260505012507 64 279 0.0 0.9 0.00 0.00 0.00 53 1015.9
20260505012005 64 279 0.0 0.9 0.00 0.00 0.00 54 1015.9
20260505011519 64 255 0.0 0.9 0.00 0.00 0.00 54 1015.9
20260505011006 64 255 0.0 0.9 0.00 0.00 0.00 55 1015.9
20260505010507 63 255 0.0 0.9 0.00 0.00 0.00 55 1015.9
20260505010022 64 255 0.0 0.9 0.00 0.00 0.00 55 1015.8
20260505005512 64 263 0.0 0.9 0.00 0.00 0.00 55 1015.8
20260505005011 65 300 0.0 0.9 0.00 0.00 0.00 54 1015.8
20260505004547 65 300 0.0 0.9 0.00 0.00 0.00 53 1015.8
20260505004010 65 300 0.0 0.9 0.00 0.00 0.00 52 1015.7
20260505003506 65 300 0.0 0.9 0.00 0.00 0.00 52 1015.6
20260505003026 65 300 0.0 0.9 0.00 0.00 0.00 51 1015.6
20260505002506 65 239 0.0 0.9 0.00 0.00 0.00 51 1015.6
20260505002009 65 239 0.0 0.9 0.00 0.00 0.00 52 1015.5
20260505001512 65 239 0.9 0.9 0.00 0.00 0.00 51 1015.5
20260505001006 66 239 0.0 0.9 0.00 0.00 0.00 52 1015.5
20260505000511 66 236 0.9 0.9 0.00 0.00 0.00 52 1015.5
20260505000020 66 236 0.9 0.9 0.00 0.00 0.00 52 1015.5
20260504235508 66 236 0.0 0.9 0.00 0.00 0.00 51 1015.5
20260504235008 67 235 0.9 0.9 0.00 0.00 0.00 50 1015.5
20260504234524 67 235 0.9 0.9 0.00 0.00 0.00 50 1015.5
20260504234006 67 235 0.0 0.9 0.00 0.00 0.00 51 1015.5
20260504233507 67 235 0.0 0.9 0.00 0.00 0.00 50 1015.6
20260504233025 67 235 0.0 0.9 0.00 0.00 0.00 50 1015.6
20260504232503 67 235 0.0 0.9 0.00 0.00 0.00 50 1015.6
20260504232007 67 235 0.0 0.9 0.00 0.00 0.00 50 1015.6
20260504231510 67 234 0.9 0.9 0.00 0.00 0.00 49 1015.6
20260504231010 68 98 0.0 0.9 0.00 0.00 0.00 49 1015.5
20260504230507 68 98 0.0 0.9 0.00 0.00 0.00 48 1015.5
20260504230016 68 98 0.0 0.9 0.00 0.00 0.00 48 1015.4
20260504225508 68 97 0.0 0.9 0.00 0.00 0.00 47 1015.4
20260504225008 69 96 0.0 0.9 0.00 0.00 0.00 48 1015.5
20260504224529 69 86 0.0 0.9 0.00 0.00 0.00 48 1015.5
20260504224006 69 86 0.0 0.9 0.00 0.00 0.00 46 1015.6
20260504223510 70 86 0.0 0.9 0.00 0.00 0.00 46 1015.5
20260504223025 70 86 0.0 0.9 0.00 0.00 0.00 44 1015.6
20260504222504 70 86 0.0 0.9 0.00 0.00 0.00 46 1015.6
20260504222008 70 86 0.0 0.9 0.00 0.00 0.00 45 1015.7
20260504221506 70 86 0.0 0.9 0.00 0.00 0.00 43 1015.7
20260504221006 70 84 0.0 0.9 0.00 0.00 0.00 45 1015.7
20260504220506 70 84 0.0 0.9 0.00 0.00 0.00 43 1015.7
20260504220012 70 84 0.0 0.9 0.00 0.00 0.00 45 1015.6
20260504215508 70 53 0.0 1.7 0.00 0.00 0.00 43 1015.7
20260504215011 70 48 0.0 3.5 0.00 0.00 0.00 44 1015.6
20260504214519 70 102 0.9 3.5 0.00 0.00 0.00 44 1015.6